Location: Aula-Vintri
(58.3875°N, 22.4322°E)
Time: 21:50:28
(UTC+00:00)

Cosmos 2297 Rocket - Pass Details

Date: 13 October 2019
Orbit: 841 x 842 km, 71.0° (Epoch: 10 November)

Event Time Altitude Azimuth Distance (km) Brightness Sun altitude
Rises 18:13:05 0° 291° (WNW) 3,405 6.9 -21.7°
Reaches altitude 10° 18:16:04 10° 306° (NW) 2,470 5.7 -22.0°
Maximum altitude 18:20:31 23° 358° (N) 1,727 4.0 -22.6°
Enters shadow 18:24:05 13° 44° (NE) 2,232 4.2 -23.0°
